Preview of NWS' New Version of Forecast
This preview is not operational and should not be used for support decisions.

Regional Weather Roundup (RWR)

Issued by National Weather Service (NWS)

                            
000
ASUS43 KLSX 211957
RWRMO 

WEATHER SUMMARY FOR MISSOURI
NATIONAL WEATHER SERVICE SPRINGFIELD MO
300 PM CDT SUN JUL 21 2019

NOTE: "FAIR" INDICATES FEW OR NO CLOUDS BELOW 12,000 FEET WITH NO
       SIGNIFICANT WEATHER AND/OR OBSTRUCTIONS TO VISIBILITY.
       CURRENT SKY AND/OR WEATHER CONDITIONS ARE NOT AVAILABLE FOR
       CHILLICOTHE AND FARMINGTON.

MOZ001>031-035>038-043-044-053-054-212100-
...NORTHERN AND WESTERN MISSOURI...
  
CITY           SKY/WX    TMP DP  RH WIND       PRES   REMARKS
KANSAS CTY INT PTSUNNY   80  69  69 E12       29.97F                  
LEE'S SUMMIT   MOSUNNY   82  70  66 E12       29.97F                  
ST JOSEPH      MOSUNNY   82  70  66 NE12      29.98S                  
CHILLICOTHE      N/A     84  70  62 VRB3      29.97F                  
     
$$
MOZ066>068-077>081-088>096-101>105-212100-
...SOUTHWEST MISSOURI...
  
CITY           SKY/WX    TMP DP  RH WIND       PRES   REMARKS
SPRINGFIELD    MOSUNNY   93  71  48 VRB3      29.95F HX 100           
JOPLIN         SUNNY     92  72  51 S5        29.93F HX  99           
BRANSON        PTSUNNY   93  70  46 CALM      29.98F HX  99           
               
$$
MOZ032>034-039>042-045>050-055>058-069>072-212100-
...CENTRAL MISSOURI...  
  
CITY           SKY/WX    TMP DP  RH WIND       PRES   REMARKS
COLUMBIA       NOT AVBL                                               
ROLLA          SUNNY     88  71  57 SE3       29.97F HX  94           
SEDALIA        MOSUNNY   83  72  69 NE7       29.97F                  
               
$$
MOZ051-052-059>065-212100-
...EAST CENTRAL MISSOURI...
  
CITY           SKY/WX    TMP DP  RH WIND       PRES   REMARKS
ST LOUIS INTL  PTSUNNY   90  73  57 NW6       29.92F HX  98           
                   
$$
MOZ072>076-082>087-097>100-106>115-212100-
...SOUTH CENTRAL AND SOUTHEAST MISSOURI...
  
CITY           SKY/WX    TMP DP  RH WIND       PRES   REMARKS
CAPE GIRARDEAU FAIR      84  77  79 S3        29.90F HX  94           
POPLAR BLUFF   FAIR      91  78  65 S10       29.91F HX 106           
WEST PLAINS    SUNNY     91  71  51 VRB5      29.97F HX  97           
                                       
$$